Weather History for Jerez de la Frontera, Spain

Change the Weather History Date:

Thursday, November 1, 2012

  Actual Average Record
Temperature  
Mean Temperature 64 °F -  
Max Temperature 71 °F 65 °F 80 °F (2001)
Min Temperature 57 °F 47 °F 42 °F (2013)
Degree Days  
Heating Degree Days 1    
Growing Degree Days 14 (Base 50)    
Moisture  
Dew Point 58 °F    
Average Humidity 85    
Maximum Humidity 100    
Minimum Humidity 64    
Precipitation  
Precipitation 0.00 in 0.14 in - ()
Sea Level Pressure  
Sea Level Pressure 29.80 in    
Wind  
Wind Speed 4 mph ()    
Max Wind Speed 10 mph    
Max Gust Speed -    
Visibility 7.1 miles    
Events Rain    
Averages and records for this station are not official NWS values.
T = Trace of Precipitation, MM = Missing Value Source: Averaged Metar Reports

Daily Weather History Graph

Daily Weather History Graph

Search for Another Location

Airport:

Trip Planner

Search our weather history database for the weather conditions in past years. The results will help you decide how hot, cold, wet, or windy it might be!

Date:

Astronomy

Nov. 01, 2012 Rise Set
Actual Time 7:48 AM CET 6:26 PM CET
Civil Twilight 7:21 AM CET 6:53 PM CET
Nautical Twilight 6:50 AM CET 7:24 PM CET
Astronomical Twilight 6:20 AM CET 7:54 PM CET
Moon 8:16 PM CET (11/1) 10:05 AM CET (11/1)
Length of Visible Light 11h 32m
Length of Day
10h 38m
Waning Gibbous, 94% of the Moon is Illuminated
Nov 1
Waning Gibbous
Nov 7
Last Quarter
Nov 13
New
Nov 20
First Quarter
Nov 28
Full

Hourly Weather History & Observations

Time (CET) Temp. Dew Point Humidity Pressure Visibility Wind Dir Wind Speed Gust Speed Precip Events Conditions
1:00 AM 60 °F 58 °F 91% 29.68 in - NE 2.3 mph - -  
5:00 AM 57.2 °F 57.2 °F 100% 29.65 in 6.2 mi ENE 4.6 mph - N/A   Scattered Clouds
5:30 AM 57.2 °F 57.2 °F 100% 29.65 in 6.2 mi Variable 1.2 mph - N/A Rain Light Rain
6:00 AM 57.2 °F 57.2 °F 100% 29.65 in 6.2 mi ENE 5.8 mph - N/A Rain Light Rain
6:30 AM 57.2 °F 57.2 °F 100% 29.65 in 6.2 mi ENE 5.8 mph - N/A   Scattered Clouds
7:00 AM 57 °F 57 °F 100% 29.67 in 9 mi ENE 3.5 mph - -   Mostly Cloudy
7:00 AM 57.2 °F 57.2 °F 100% 29.65 in 6.2 mi ENE 3.5 mph - N/A   Scattered Clouds
7:30 AM 57.2 °F 57.2 °F 100% 29.65 in 6.2 mi Variable 1.2 mph - N/A   Scattered Clouds
8:00 AM 57.2 °F 57.2 °F 100% 29.68 in 6.2 mi Variable 1.2 mph - N/A   Mostly Cloudy
8:30 AM 59.0 °F 57.2 °F 94% 29.68 in 6.2 mi Variable 1.2 mph - N/A   Mostly Cloudy
9:00 AM 59.0 °F 57.2 °F 94% 29.71 in 6.2 mi Calm Calm - N/A   Scattered Clouds
9:30 AM 60.8 °F 57.2 °F 88% 29.71 in 6.2 mi Variable 2.3 mph - N/A   Scattered Clouds
10:00 AM 62.6 °F 57.2 °F 82% 29.74 in 6.2 mi Calm Calm - N/A   Scattered Clouds
10:30 AM 62.6 °F 59.0 °F 88% 29.74 in 6.2 mi Variable 2.3 mph - N/A   Scattered Clouds
11:00 AM 64.4 °F 59.0 °F 83% 29.77 in 6.2 mi NNW 9.2 mph - N/A   Scattered Clouds
11:30 AM 64.4 °F 59.0 °F 83% 29.80 in 6.2 mi NNW 10.4 mph - N/A   Scattered Clouds
12:00 PM 64.4 °F 59.0 °F 83% 29.80 in 6.2 mi North 9.2 mph - N/A   Scattered Clouds
12:30 PM 66.2 °F 59.0 °F 78% 29.80 in 6.2 mi North 6.9 mph - N/A   Partly Cloudy
1:00 PM 68 °F 60 °F 68% 29.81 in 19 mi NNW 5.8 mph - -   Scattered Clouds
1:00 PM 66.2 °F 59.0 °F 78% 29.80 in 6.2 mi North 5.8 mph - N/A   Partly Cloudy
1:30 PM 68.0 °F 57.2 °F 68% 29.80 in 6.2 mi West 4.6 mph - N/A   Partly Cloudy
2:00 PM 68.0 °F 57.2 °F 68% 29.80 in 6.2 mi WNW 5.8 mph - N/A   Partly Cloudy
2:30 PM 68.0 °F 55.4 °F 64% 29.80 in 6.2 mi WNW 6.9 mph - N/A   Partly Cloudy
3:00 PM 69.8 °F 57.2 °F 64% 29.80 in 6.2 mi West 5.8 mph - N/A   Partly Cloudy
3:30 PM 69.8 °F 57.2 °F 64% 29.83 in 6.2 mi West 8.1 mph - N/A   Partly Cloudy
4:00 PM 68.0 °F 57.2 °F 68% 29.83 in 6.2 mi West 10.4 mph - N/A   Partly Cloudy
4:30 PM 68.0 °F 57.2 °F 68% 29.83 in 6.2 mi WSW 10.4 mph - N/A   Partly Cloudy
5:00 PM 68.0 °F 57.2 °F 68% 29.86 in 6.2 mi West 9.2 mph - N/A   Partly Cloudy
5:30 PM 68.0 °F 57.2 °F 68% 29.86 in 6.2 mi WSW 9.2 mph - N/A   Partly Cloudy
6:00 PM 66.2 °F 59.0 °F 78% 29.86 in 6.2 mi West 8.1 mph - N/A   Partly Cloudy
6:30 PM 64.4 °F 59.0 °F 83% 29.86 in 6.2 mi WSW 6.9 mph - N/A   Partly Cloudy
7:00 PM 63 °F 60 °F 86% 29.89 in 19 mi WSW 4.6 mph - -   Clear
7:00 PM 62.6 °F 59.0 °F 88% 29.89 in - WSW 4.6 mph - N/A   Clear
7:30 PM 62.6 °F 59.0 °F 88% 29.89 in - WSW 3.5 mph - N/A   Clear
8:00 PM 62.6 °F 59.0 °F 88% 29.92 in - WSW 5.8 mph - N/A   Clear
8:30 PM 60.8 °F 59.0 °F 94% 29.92 in - WSW 5.8 mph - N/A   Clear
9:00 PM 60.8 °F 59.0 °F 94% 29.92 in - WSW 3.5 mph - N/A   Clear
9:30 PM 59.0 °F 57.2 °F 94% 29.92 in - Variable 1.2 mph - N/A   Clear
10:00 PM 57.2 °F 57.2 °F 100% 29.95 in - Variable 1.2 mph - N/A   Clear
10:30 PM 57.2 °F 57.2 °F 100% 29.95 in - Variable 1.2 mph - N/A   Clear
11:00 PM 57.2 °F 55.4 °F 94% 29.95 in - Calm Calm - N/A   Clear